Location: ??????
(38.1303°N, 24.0039°E)
Time: 11:09:30
(UTC+00:00)

Cosmos 2292 Rocket - Pass Details

Date: 20 June 2021
Orbit: 381 x 1445 km, 83.0° (Epoch: 01 August)

Event Time Altitude Azimuth Distance (km) Brightness Sun altitude
Exits shadow 00:26:40 37° 78° (ENE) 630 3.9 -22.2°
Drops below altitude 10° 00:29:09 10° 24° (NNE) 1,407 6.5 -21.9°
Sets 00:31:10 0° 15° (NNE) 2,280 7.8 -21.7°
